When you browse on this site, cookies collect data to enhance your experience and personalize the content and advertising you see.
Visit our Privacy Policy to learn more. By continuing to use the site, you agree to this use of cookies and data.
  • en France
  • Liste des pays
  • À 7 jours
  • Température de l'eau
  • Carte météo
  • Widgets météo
  • user-avatar
    Se connecter

    Météo par heure à Wuzhou

    Ce jour, 16 Septembre, Lundi

    Heure Température Précipitation Vent Pression Humidité
    00:00 +26°C° 0.1 mm 0 m/s 752 mmHg 87%
    01:00 +25°C° 0 mm 0 m/s 752 mmHg 86%
    02:00 +25°C° 0.3 mm 0 m/s 752 mmHg 87%
    03:00 +25°C° 0.3 mm 0 m/s 752 mmHg 89%
    04:00 +25°C° 0.3 mm 0 m/s 752 mmHg 90%
    05:00 +25°C° 0.2 mm 0 m/s 752 mmHg 89%
    06:00 +26°C° 0.2 mm 0 m/s 753 mmHg 87%
    07:00 +29°C° 0 mm 1 m/s 753 mmHg 86%
    08:00 +31°C° 0.1 mm 1 m/s 753 mmHg 77%
    09:00 +33°C° 0.1 mm 1 m/s 753 mmHg 69%
    10:00 +35°C° 0.1 mm 1 m/s 753 mmHg 61%
    11:00 +36°C° 0.1 mm 1 m/s 752 mmHg 57%
    12:00 +36°C° 0.1 mm 1 m/s 751 mmHg 53%
    13:00 +37°C° 0 mm 1 m/s 751 mmHg 50%
    14:00 +36°C° 0.1 mm 1 m/s 751 mmHg 56%
    15:00 +35°C° 0.1 mm 1 m/s 750 mmHg 61%
    16:00 +34°C° 0.1 mm 1 m/s 750 mmHg 67%
    17:00 +33°C° 0.2 mm 1 m/s 750 mmHg 72%
    18:00 +31°C° 0.2 mm 1 m/s 751 mmHg 76%
    19:00 +30°C° 0.2 mm 1 m/s 751 mmHg 81%
    20:00 +29°C° 0.3 mm 1 m/s 751 mmHg 83%
    21:00 +29°C° 0.3 mm 1 m/s 752 mmHg 85%
    22:00 +26°C° 0.3 mm 0 m/s 752 mmHg 86%
    23:00 +28°C° 1 mm 1 m/s 752 mmHg 88%

    Demain, 17 Septembre, Mardi

    Heure Température Précipitation Vent Pression Humidité
    00:00 +27°C° 1 mm 1 m/s 752 mmHg 90%
    01:00 +27°C° 1 mm 1 m/s 752 mmHg 92%
    02:00 +27°C° 0 mm 1 m/s 752 mmHg 92%
    03:00 +27°C° 0 mm 1 m/s 752 mmHg 93%
    04:00 +26°C° 0 mm 1 m/s 753 mmHg 93%
    05:00 +27°C° 0 mm 1 m/s 753 mmHg 92%
    06:00 +28°C° 0 mm 1 m/s 753 mmHg 90%
    07:00 +28°C° 0 mm 1 m/s 754 mmHg 88%
    08:00 +30°C° 0.3 mm 1 m/s 754 mmHg 80%
    09:00 +32°C° 0.3 mm 1 m/s 754 mmHg 71%
    10:00 +35°C° 0.3 mm 2 m/s 754 mmHg 63%
    11:00 +34°C° 0.6 mm 1 m/s 753 mmHg 62%
    12:00 +35°C° 0.6 mm 1 m/s 753 mmHg 61%
    13:00 +35°C° 0.6 mm 1 m/s 752 mmHg 60%
    14:00 +35°C° 0.8 mm 1 m/s 752 mmHg 65%
    15:00 +34°C° 0.8 mm 1 m/s 752 mmHg 71%
    16:00 +33°C° 0.8 mm 1 m/s 752 mmHg 76%
    17:00 +32°C° 0.3 mm 1 m/s 752 mmHg 80%
    18:00 +30°C° 0.3 mm 1 m/s 753 mmHg 84%
    19:00 +27°C° 0.3 mm 0 m/s 753 mmHg 87%
    20:00 +26°C° 0.3 mm 0 m/s 754 mmHg 89%
    21:00 +28°C° 0.3 mm 1 m/s 754 mmHg 90%
    22:00 +27°C° 0.3 mm 1 m/s 755 mmHg 91%
    23:00 +27°C° 0 mm 1 m/s 755 mmHg 92%

    Après-demain, 18 Septembre, Mercredi

    Heure Température Précipitation Vent Pression Humidité
    00:00 +27°C° 0 mm 1 m/s 755 mmHg 93%
    01:00 +26°C° 0 mm 1 m/s 754 mmHg 93%
    02:00 +26°C° 0 mm 1 m/s 754 mmHg 94%
    03:00 +26°C° 0 mm 1 m/s 754 mmHg 94%
    04:00 +26°C° 0 mm 1 m/s 754 mmHg 94%
    05:00 +26°C° 0 mm 1 m/s 755 mmHg 92%
    06:00 +27°C° 0 mm 1 m/s 755 mmHg 89%
    07:00 +27°C° 0 mm 1 m/s 756 mmHg 87%
    08:00 +29°C° 0 mm 1 m/s 756 mmHg 78%
    09:00 +31°C° 0 mm 2 m/s 756 mmHg 69%
    10:00 +34°C° 0 mm 2 m/s 756 mmHg 61%
    11:00 +35°C° 0 mm 2 m/s 755 mmHg 58%
    12:00 +36°C° 0 mm 2 m/s 755 mmHg 55%
    13:00 +36°C° 0 mm 2 m/s 754 mmHg 53%
    14:00 +36°C° 0 mm 2 m/s 754 mmHg 56%
    15:00 +35°C° 0 mm 2 m/s 753 mmHg 59%
    16:00 +35°C° 0 mm 2 m/s 753 mmHg 63%
    17:00 +32°C° 0 mm 2 m/s 754 mmHg 68%
    18:00 +30°C° 0 mm 2 m/s 754 mmHg 74%
    19:00 +28°C° 0 mm 1 m/s 755 mmHg 79%
    20:00 +27°C° 0 mm 1 m/s 755 mmHg 80%
    21:00 +27°C° 0 mm 1 m/s 756 mmHg 82%
    22:00 +26°C° 0 mm 1 m/s 756 mmHg 83%
    23:00 +26°C° 0 mm 1 m/s 756 mmHg 83%

    19 Septembre, Jeudi

    Heure Température Précipitation Vent Pression Humidité
    00:00 +26°C° 0 mm 1 m/s 756 mmHg 84%
    01:00 +25°C° 0 mm 1 m/s 755 mmHg 85%
    02:00 +25°C° 0 mm 1 m/s 755 mmHg 86%
    03:00 +25°C° 0 mm 1 m/s 755 mmHg 87%
    04:00 +24°C° 0 mm 1 m/s 755 mmHg 87%
    05:00 +25°C° 0 mm 1 m/s 756 mmHg 85%
    06:00 +26°C° 0 mm 1 m/s 756 mmHg 82%
    07:00 +26°C° 0 mm 1 m/s 756 mmHg 79%
    08:00 +28°C° 0 mm 1 m/s 756 mmHg 72%
    09:00 +30°C° 0 mm 1 m/s 756 mmHg 65%
    10:00 +32°C° 0 mm 1 m/s 756 mmHg 57%
    11:00 +33°C° 0 mm 1 m/s 755 mmHg 54%
    12:00 +34°C° 0 mm 1 m/s 755 mmHg 51%
    13:00 +35°C° 0 mm 1 m/s 754 mmHg 48%
    14:00 +34°C° 0 mm 1 m/s 753 mmHg 52%
    15:00 +33°C° 0 mm 1 m/s 753 mmHg 55%
    16:00 +33°C° 0 mm 1 m/s 752 mmHg 59%
    17:00 +31°C° 0 mm 1 m/s 753 mmHg 63%
    18:00 +29°C° 0 mm 1 m/s 753 mmHg 68%
    19:00 +28°C° 0 mm 1 m/s 753 mmHg 72%
    20:00 +27°C° 0 mm 1 m/s 754 mmHg 74%
    21:00 +27°C° 0 mm 1 m/s 754 mmHg 76%
    22:00 +26°C° 0 mm 1 m/s 755 mmHg 77%
    23:00 +26°C° 0 mm 1 m/s 755 mmHg 78%

    20 Septembre, Vendredi

    Heure Température Précipitation Vent Pression Humidité
    00:00 +25°C° 0 mm 1 m/s 754 mmHg 79%
    01:00 +25°C° 0 mm 1 m/s 754 mmHg 80%
    02:00 +25°C° 0 mm 1 m/s 754 mmHg 81%
    03:00 +22°C° 0 mm 0 m/s 754 mmHg 82%
    04:00 +22°C° 0 mm 0 m/s 754 mmHg 83%
    05:00 +23°C° 0 mm 0 m/s 754 mmHg 80%
    06:00 +23°C° 0 mm 0 m/s 754 mmHg 77%
    07:00 +24°C° 0 mm 0 m/s 754 mmHg 74%
    08:00 +28°C° 0 mm 1 m/s 754 mmHg 66%
    09:00 +30°C° 0 mm 1 m/s 754 mmHg 58%
    10:00 +32°C° 0 mm 1 m/s 754 mmHg 49%
    11:00 +34°C° 0 mm 2 m/s 754 mmHg 47%
    12:00 +34°C° 0 mm 2 m/s 753 mmHg 44%
    13:00 +35°C° 0 mm 3 m/s 753 mmHg 42%
    14:00 +34°C° 0 mm 3 m/s 752 mmHg 46%
    15:00 +34°C° 0 mm 3 m/s 752 mmHg 51%
    16:00 +33°C° 0 mm 3 m/s 752 mmHg 55%
    17:00 +30°C° 0 mm 2 m/s 752 mmHg 59%
    18:00 +28°C° 0 mm 2 m/s 753 mmHg 63%
    19:00 +27°C° 0 mm 1 m/s 753 mmHg 66%
    20:00 +26°C° 0 mm 1 m/s 754 mmHg 68%
    21:00 +25°C° 0 mm 1 m/s 754 mmHg 69%
    22:00 +25°C° 0 mm 1 m/s 755 mmHg 71%
    23:00 +24°C° 0 mm 1 m/s 754 mmHg 71%

    21 Septembre, Samedi

    Heure Température Précipitation Vent Pression Humidité
    00:00 +24°C° 0 mm 1 m/s 754 mmHg 71%
    01:00 +23°C° 0 mm 1 m/s 754 mmHg 72%
    02:00 +23°C° 0 mm 1 m/s 754 mmHg 72%
    03:00 +22°C° 0 mm 1 m/s 754 mmHg 73%
    04:00 +22°C° 0 mm 1 m/s 754 mmHg 74%
    05:00 +23°C° 0 mm 1 m/s 754 mmHg 72%
    06:00 +23°C° 0 mm 1 m/s 755 mmHg 70%
    07:00 +24°C° 0 mm 1 m/s 755 mmHg 69%
    08:00 +26°C° 0 mm 1 m/s 755 mmHg 62%
    09:00 +28°C° 0 mm 2 m/s 755 mmHg 56%
    10:00 +30°C° 0 mm 2 m/s 755 mmHg 49%
    11:00 +30°C° 0 mm 3 m/s 755 mmHg 48%
    12:00 +31°C° 0 mm 3 m/s 754 mmHg 46%
    13:00 +33°C° 0 mm 3 m/s 754 mmHg 44%
    14:00 +31°C° 0 mm 3 m/s 754 mmHg 47%
    15:00 +31°C° 0 mm 3 m/s 754 mmHg 50%
    16:00 +30°C° 0 mm 3 m/s 753 mmHg 53%
    17:00 +29°C° 0 mm 3 m/s 754 mmHg 56%
    18:00 +27°C° 0 mm 2 m/s 754 mmHg 60%
    19:00 +25°C° 0 mm 2 m/s 755 mmHg 64%
    20:00 +25°C° 0 mm 2 m/s 755 mmHg 66%
    21:00 +24°C° 0 mm 1 m/s 756 mmHg 69%
    22:00 +23°C° 0 mm 1 m/s 756 mmHg 71%
    23:00 +23°C° 0 mm 1 m/s 756 mmHg 71%
    Voir plus